sat.trackr.live / text

‹ back to catalog

TRANSPORTER-16 OBJECT P

NORAD 68429 · 2026-067P

PAYLOAD ACTIVE UNKNOWN

§ Identity

Operator
Country
TBD
Launch date
2026-03-30
Launch site
AFWTR
Launch vehicle
Mass (kg)
RCS (m²)

External: N2YO · Heavens-Above · Gunter

§ Orbital elements

Epoch: 2026-05-24T20:40:28.168032Z

Period
94.81 min
Inclination
97.4492°
Eccentricity
0.0005017
Mean motion
15.18856851 rev/d
Perigee alt
505.8 km
Apogee alt
512.7 km
Semi-major
6,887.4 km
B*
5.2807e-4
RAAN
103.6725°
Arg perigee
101.8143°
Mean anomaly
258.3654°
Rev number
840

§ Raw data

TRANSPORTER-16 OBJECT P1 68429U 26067P   26144.86143713  .00010948  00000+0  52807-3 0  99962 68429  97.4492 103.6725 0005017 101.8143 258.3654 15.18856851  8404

JSON: /api/v1/satellites/68429 · /tle

For live sub-satellite position, see the globe view (requires WebGL).

§ Visibility from observer

Set your observer location to see the next 7 days of passes ≥ 10°. The values pass through the URL so the page stays shareable.

No JS? Fill the form by hand. The geolocation button needs JavaScript.